2013 Results

Mallow AC 18 March 2013 Kostal Ireland 10 mile Road Race
PositionNumberTime Name Club M/F CategoryPace

1 198 51:23 HARTY, Philip WESTWATERFORD M MS 05:08:18
2 929 51:57 BRALITIS, Sandis WEST WATERFORD AC M MS 05:11:42
3 1164 53:53 ZAKIS, Raivis WEST WATERFORD AC M MS 05:23:18
4 443 54:32 MEADE, John ST. FINBARR’S A.C. M MS 05:27:12
5 864 54:38 SMITH, Danny BALLYNONTY AC M MS 05:27:48
6 881 54:58 SOSNOWSKI, Wieslaw EAGLE M M40 05:29:48
7 897 55:07 O’ CONNELL, Cathal ST FINBARRS AC M M45 05:30:42
8 181 55:25 MORGAN, Michael ST FINBARRS CORK M MS 05:32:30
9 450 55:56 O’ SULLIVAN, Rory N/A Carrigaline M MS 05:35:36
10 641 56:01 HARTY, Michael EAST CORK M MS 05:36:06
11 1175 56:53 ROCHE, Fiona RAHENY SHAMROCKS F FS 05:41:18
12 852 57:14 KLAVA, Dzintars N/A Dungarvan M MS 05:43:24
13 740 57:15 O SHEA, Alex ST FINBARRS M MS 05:43:30
14 1071 57:32 BUCKLEY, Michael N/A Cobh M MS 05:45:12
15 805 57:39 RYAN, David CLONMELAC AC M M40 05:45:54
16 827 57:54 OLEARY, Fergal N/A Dublin 2 M MS 05:47:24
17 988 57:57 MURPHY, Sean TRIM AC M M40 05:47:42
18 620 58:02 MC CARTHY, George FARRANFORE MAINE VALLEY M M40 05:48:12
19 89 58:13 WOLFE, Mark N/A Waterfall M M40 05:49:18
20 935 58:17 NOLAN, Patrick N/A Clonee M MS 05:49:42
21 798 58:38 MOLLOY, Darren NAVY AC M MS 05:51:48
22 153 58:40 SLATTERY, Liam MALLOW AC M MS 05:52:00
23 513 58:42 KEOHANE, Don N/A Rossmore M M45 05:52:12
24 871 58:43 CANAVAN, Darragh MIDLETON AC M MS 05:52:18
25 1101 58:44 GUBBINS, James KILFINANE AC M MS 05:52:24
26 1084 58:47 CUNNINGHAM, Joe N/A Macroom M M40 05:52:42
27 629 58:55 SUGRUE, Eoin N/A Banteer M M40 05:53:30
28 1039 58:57 COAKLEY, Donal TOGHER A.C M MS 05:53:42
29 296 58:59 DOHERTY, Declan THURLES CROKES AC M M40 05:53:54
30 953 59:01 WALSH, Joe N/A Midleton M MS 05:54:06
31 789 59:17 LOONEY, Aidan N/A Ovens M MS 05:55:42
32 1189 59:21 O’BRIEN, Alan EAGLE AC M MS 05:56:06
33 378 59:27 O’ DWYER, Finbarr LEEVALE M M40 05:56:42
34 1088 59:31 FALCONER, Tommy CARRICK-ON-SUIR AC M MS 05:57:06
35 558 59:32 GORRY, Keith TULLAMORE HARRIERS M MS 05:57:12
36 863 59:38 DALY, Mark ENNIS TRACK M MS 05:57:48
37 445 59:41 FLANNELLY, Brian N/A Raheen M MS 05:58:06
38 674 59:51 PHILLIPS, Robin WESTBURY HARRIERS M MS 05:59:06
39 541 59:53 MC CANN, Angela N/A Clonmel, F F40 05:59:18
40 1141 59:58 FOLEY, Vivian EAGLE AC M M40 05:59:48
41 841 59:59 MULLANEY, Shane THURLES CROKES AC M MS 05:59:54
42 745 1:00:09 FITZGERALD, Paul N/A Clare M MS 00:06:01
43 255 1:00:11 O’ CONNOR, Kealan GRANGE AC M MS 00:06:01
44 645 1:00:22 DORGAN, Ian ST FINBARRS M MS 00:06:02
45 125 1:00:32 MURNANE, Christopher WEST MUSKERRY AC M MS 00:06:03
46 502 1:00:41 CURLEY, Anne DONORE HARRIERS F F40 00:06:04
47 507 1:00:43 KELLY, Ian WEST LIMERICK AC M MS 00:06:04
48 266 1:00:52 MC DONNELL, Edward MALLOW M M40 00:06:05
49 1011 1:00:53 WEIR, Finlay WATERFORD AC M M40 00:06:05
50 1067 1:00:54 RYAN, Michael DUNDRUM A.C. M MS 00:06:05
51 1025 1:01:18 CONNOLLY, Nicky WEST WATERFORD AC M MS 00:06:08
52 683 1:01:20 SMYTH, Andrew COOLQUILL A/C M MS 00:06:08
53 398 1:01:25 CAMBRIDGE, Tony EAGLE ATHLETICS M M45 00:06:08
54 441 1:01:27 PURCELL, Pat KCH M MS 00:06:09
55 295 1:01:34 O’ SHAUGHNESSY, John THURLES CROKES AC M M45 00:06:09
56 321 1:01:49 LUCEY, Micheal LEEVALE A.C. M M40 00:06:11
57 347 1:01:56 WHYTE, Robert AN RIOCHT M M40 00:06:12
58 767 1:01:58 DEASY, Eoin LEEVALE A.C. M MS 00:06:12
59 86 1:02:01 LEAHY, Tom WEST WATERFORD AC M MS 00:06:12
60 451 1:02:01 O’ SULLIVAN, Diarmaid EAGLE ATHLETIC M MS 00:06:12
61 212 1:02:04 DOLLARD, Glenn ST. FINBARR’S M MS 00:06:12
62 583 1:02:09 DUNFORD, Michael WEST WATERFORD AC M M45 00:06:13
63 814 1:02:13 TRACEY, Stephen N/A Glanmire M MS 00:06:13
64 508 01:02:20 DEWBERRY, Johann N/A Kilkenny M MS 00:06:14
65 1179 1:02:26 ZAJAC, Patrick MALLOW AC M MS 00:06:15
66 848 1:02:30 BEECHER, Denis N/A Ballyhooly M MS 00:06:15
67 615 1:02:34 LANDY, Frank ENNIS TRACK AC M MS 00:06:15
68 354 1:02:35 LONG, Brian CLONMEL AC M MS 00:06:15
69 269 1:02:38 FEEHAN, Maurice GNEEVEGUILLA AC M MS 00:06:16
70 515 1:02:40 O’ SULLIVAN, John ST. FINBARR’S M MS 00:06:16
71 563 1:02:41 STAUNTON, Kieran DOONEEN M MS 00:06:16
72 107 1:02:42 DEVINE, Ken ST FINBARRS AC M M45 00:06:16
73 268 1:02:42 CRAIG, David BANDON A.C M MS 00:06:16
74 797 1:02:44 FITZGERALD, Pat CORK TRIATHLON CLUB M MS 00:06:16
75 312 1:02:44 PHILLIPS, Billy THURLES CROKES M M40 00:06:16
76 437 1:02:45 OKEEFFE, Derek N/A Cork M MS 00:06:16
77 614 1:02:45 BEECHER, John UNATTACHED M MS 00:06:16
78 439 1:02:47 NEUMERZHITSKIY, Vasiliy CLONMEL M M45 00:06:17
79 228 1:02:54 CURTIN, Martin ST FINBARRS M MS 00:06:17
80 25 1:02:55 O’ HERLIHY, Colin EAGLE AC M M40 00:06:17
81 977 1:02:56 MC INERNEY, Diarmuid N/A Mallow M M40 00:06:18
82 264 1:03:01 SHEEHAN, Tom BANDON AC M M45 00:06:18
83 35 1:03:09 O’ RIORDAN , Brendan N/A Buttevant M MS 00:06:19
84 653 1:03:24 CREEDON, Daithi EAGLE A.C M MS 00:06:20
85 423 1:03:36 CREED, Michael N/A Cork M MS 00:06:22
86 810 1:03:36 REJMER, Michal DOONEEN A.C. M MS 00:06:22
87 772 1:03:37 DUCHNICZ, Adam MIDLETON A.C. M M40 00:06:22
88 304 1:03:41 MURPHY, Donal BORD GAIS BHAA M MS 00:06:22
89 590 1:03:46 CASEY, Garrett ST FINBARRS M M40 00:06:23
90 720 1:03:53 SHANAHAN, Paul NAVAL SERVICE A.C. M M45 00:06:23
91 930 1:03:57 KILTY, Colin N/A Cork M MS 00:06:24
92 63 1:04:02 ASPEL, Brendan WATERFORD AC M M45 00:06:24
93 1094 1:04:11 O SULLIVAN, Sean EAGLE AC M MS 00:06:25
94 1110 1:04:12 HAHESY, Ray WEST WATERFORD M M45 00:06:25
95 695 1:04:13 HILL, Frank N/A Kinsale M M45 00:06:25
96 1007 1:04:17 OCALLAGHAN, Niall N/A Corbally M M40 00:06:26
97 624 1:04:23 KENNY, James KILMURRY IBRICKANE/ NORTH CLARE A.C M M55 00:06:26
98 129 1:04:28 DORIS, Anna MIDLETON A.C. F F40 00:06:27
99 1093 1:04:30 CANTWELL, Gerry WEST WATERFORD M M55 00:06:27
100 10 1:04:30 KISSANE, John N/A Cork M M45 00:06:27
101 765 1:04:33 COFFEY, Philip CARRAIGNABHFEAR AC M M40 00:06:27
102 510 1:04:35 CLANCY, Michael MALLOW AC M MS 00:06:28
103 780 1:04:37 KELLEHER, Alan N/A Ballincollig M MS 00:06:28
104 462 1:04:42 FIELD, Eoin ST FINBARRS M MS 00:06:28
105 66 1:04:43 O’ CALLAGHAN, Ruairi KILFINANE AC M MS 00:06:28
106 1066 1:04:55 O’ CALLAGHAN, John EAGLE AC M M40 00:06:29
107 529 1:04:55 O SULLIVAN, Johnny GALTEE RUNNERS M M40 00:06:29
108 1111 1:04:56 MULCAHY, Kieran N/A Carrigtwohill M M40 00:06:30
109 986 1:05:02 MORAN, Frank CLONMEL A.C M MS 00:06:30
110 234 1:05:09 SWEENEY, Mary ST. FINBARRS AC F F50 00:06:31
111 1826 01:05:17 BUCKLEY, Aidan MALLOW AC M M40 00:06:32
112 1159 1:05:19 HAYES, Willie ST FINBARRS M M55 00:06:32
113 147 1:05:20 MANNING, Sean KILFINANE AC M M40 00:06:32
114 713 1:05:21 MOORE, Ann LEEVALE A.C. F F45 00:06:32
115 626 1:05:23 TWOMEY, Pat EAGLE AC M M60 00:06:32
116 402 1:05:26 O’ LEARY, Micheal N/A Grenagh M MS 00:06:33
117 651 1:05:28 CURLEY, Florence N/A Dublin F F35 00:06:33
118 39 1:05:32 DERMODY, Stephen KILKENNY HARRIERS M M40 00:06:33
119 1173 1:05:34 LANDERS, Brian YOUGHAL AC M MS 00:06:33
120 303 1:05:34 EGAN, Gary KILFINANE A/C M MS 00:06:33
121 18 1:05:39 DWYER, Michael WEST WATERFORD AC M M45 00:06:34
122 261 1:05:41 MULLINS, Michael NIRTH CORK A.C. M M45 00:06:34
123 99 1:05:41 SEXTON, Keith EAGLE AC M M45 00:06:34
124 68 1:05:42 HARNEY, Ken YOUGHAL AC M M40 00:06:34
125 1004 1:05:42 ALLIS, Sean CLONAKILTY AC M MS 00:06:34
126 769 1:05:43 PALEY, Sinead N/A Crosshaven F F40 00:06:34
127 481 1:05:46 BOLAND, Ronan EAGLE AC M M45 00:06:35
128 839 1:05:47 MURPHY, Kieran BROSNA M MS 00:06:35
129 1072 1:05:49 FITZGERALD, Pat WEST WATERFORD M MS 00:06:35
130 1176 1:05:51 FINN, Carol LEEVALE AC F FS 00:06:35
131 516 1:05:53 MC GRATH, Jim N/A Blackrock M MS 00:06:35
132 901 1:05:54 LEAHY, Martin N/A Cork M M45 00:06:35
133 596 1:06:07 O’ CALLAGHAN, David EAGLE AC M M45 00:06:37
134 478 1:06:11 SAUNDERS, Mark TEMPLEMORE AC M MS 00:06:37
135 145 1:06:11 MAHONEY, Trevor CORK TRI CLUB M MS 00:06:37
136 500 1:06:13 GLAVIN, Colm EAGLE AC M MS 00:06:37
137 1034 1:06:17 HOWELL, David N/A Mallow M MS 00:06:38
138 735 1:06:34 O’ SHEA, Geraldine ST FINBARR S AC F F40 00:06:39
139 349 1:06:36 BARRY, Fergal GNEEVEGUILLE M M40 00:06:40
140 549 1:06:45 KIELY, Peter CLONMEL AC M MS 00:06:41
141 302 1:06:49 SHEEHAN, Andrew N/A Ballinhassig M MS 00:06:41
142 109 1:06:50 LEONARD, Helen LEEVALE AC F F40 00:06:41
143 944 1:06:56 O SULLIVAN, John N/A Bishopstown M MS 00:06:42
144 43 1:06:57 BUTLER, David ST FINBARRS AC M MS 00:06:42
145 88 1:06:58 MAC KAY, Neil EAGLE AC M M40 00:06:42
146 98 1:06:59 CRONIN, Niamh ST. FINBARRS F F35 00:06:42
147 199 1:07:03 O’ SULLIVAN, Dermot MALLOW M M40 00:06:42
148 979 1:07:10 CORBETT, Michael EAGLE AC M MS 00:06:43
149 299 1:07:11 GEARY, Kevin EAGLE AC M MS 00:06:43
150 943 1:07:11 POWER, Annemarie EAGLE AC F F35 00:06:43
151 1133 1:07:14 KINANE, Brendan DUNDRUM AC M M45 00:06:43
152 182 1:07:17 KENNEDY, Cian EAGLE AC M MS 00:06:44
153 723 1:07:17 LINEHAN, Michael N/A Blarney M M40 00:06:44
154 64 1:07:17 GROGAN, Declan CARRIGALINE ROAD RUNNERS M MS 00:06:44
155 931 1:07:22 DARCY, Thomas N/A Cahir M MS 00:06:44
156 207 1:07:30 COTTER, Paul N/A Glanmire M MS 00:06:45
157 540 1:07:37 CARROLL, Brian N/A Cahir M M40 00:06:46
158 1003 1:07:42 COOKE, Katie ST FINBARRS AC F FS 00:06:46
159 286 1:07:49 O’ RIORDAN, Raymond THURLES CROKES M MS 00:06:47
160 526 1:07:52 DESMOND, Fionnuala LEEVALE F F40 00:06:47
161 949 1:07:55 BARRY, Caitriona N/A Tralee F F40 00:06:48
162 724 1:08:01 NOONAN, Alan N/A Passage West M MS 00:06:48
163 492 1:08:04 WALSH, Peter GRANGE AC M M40 00:06:48
164 946 1:08:07 HESSION, Patrick CARRIGNABHFEAR M MS 00:06:49
165 1165 1:08:12 MC BRIDE, Michael ENNIS TRACK M M45 00:06:49
166 149 1:08:20 BROSNAN, Dermot CRUSADERS M MS 00:06:50
167 350 1:08:21 WOLFE, Anne ST FINBARRS F F40 00:06:50
168 334 1:08:25 BARRY, Alan KILDINAN M MS 00:06:50
169 434 1:08:30 O DONOVAN, Neil NONE M MS 00:06:51
170 1118 1:08:32 MC GRATH, Brendan N/A Midleton M M40 00:06:51
171 105 1:08:36 O’ SULLIVAN, Sean MIDLETON AC M M40 00:06:52
172 319 1:08:36 CARROLL, Denis EAGLE AC M M50 00:06:52
173 1190 1:08:36 O’HANLON, Vincent BELPARK TRI M MS 00:06:52
174 394 1:08:42 POWELL, Donagh N/A Mallow M MS 00:06:52
175 484 1:08:42 KEOGH, Peter COUNTRY CLUB M M40 00:06:52
176 672 1:08:42 GILTINAN, Donal EAGLE AC M MS 00:06:52
177 1109 1:08:44 O CONNELL, Owen MIDLETON AC M MS 00:06:52
178 688 1:08:45 O’ MAHONY, Brendan GRANGE FERMOY AC M M40 00:06:52
179 912 1:08:47 MC GEE, Aidan N/A M M40 00:06:53
180 557 1:08:49 O MALLEY, Dermot LIMERICK AC M M40 00:06:53
181 94 1:08:49 COTTER, Gillian ST FINBARRS F F35 00:06:53
182 236 1:08:52 CHAMBERS, Elton TRACTON M MS 00:06:53
183 668 1:08:54 AHERNE, Barry MIDLETON AC M MS 00:06:53
184 444 1:08:55 SCHWIRZ, Laura N/A Dublin F FS 00:06:53
185 426 1:08:55 HEALY, Tim N/A Kanturk M M45 00:06:53
186 248 1:08:56 REILLY, Gerry N/A Innishannon M M45 00:06:54
187 405 1:08:57 LACY, Johanna CLONMEL AC F F35 00:06:54
188 367 1:08:57 O’ LEARY, Ted WEST WATERFORD AC M M40 00:06:54
189 348 1:08:57 KEATING, Mike GALTEE RUNNERS M M40 00:06:54
190 176 1:08:58 COONEY, Mike N/A Ardnacrusha M M40 00:06:54
191 664 1:09:00 O’ MAHONY, Roger EAGLE AC M M40 00:06:54
192 85 1:09:01 MURPHY, Esther ST FINBARRS AC F F35 00:06:54
193 233 1:09:01 AHERNE, Joe BILBOA AC M M55 00:06:54
194 731 1:09:01 DOLAN, Michael N/A Cork M MS 00:06:54
195 659 1:09:02 ROWAN, Mark N/A Tralee M MS 00:06:54
196 952 1:09:04 O’ NEILL, Jason N/A Killeens M MS 00:06:54
197 482 1:09:05 BUCKLEY, Johnpaul N/A Millstreet M MS 00:06:55
198 222 1:09:08 CREEDON, Stephen MALLOW AC M MS 00:06:55
199 142 1:09:08 BOAG, Kevin MALLOW M M50 00:06:55
200 485 1:09:14 COLLINS, Joseph N/A Cork M MS 00:06:55
201 1143 1:09:16 O BRIEN, Richard FARRANFORE MAINE VALLEY M M40 00:06:56
202 890 1:09:17 MC CARTHY, Shane N/A Mallow Co Cork M MS 00:06:56
203 361 1:09:18 COFFEY, Patrick TRAMORE M MS 00:06:56
204 82 1:09:22 DEANE, Carmel N/A Killeagh F FS 00:06:56
205 178 1:09:26 LOUGHNANE, Madeline THURLES CROKES F FS 00:06:57
206 803 1:09:27 HANLEY, Shane GALTEE RUNNERS M MS 00:06:57
207 550 1:09:28 REIDY, Paul N/A Newtownshandrum M MS 00:06:57
208 854 1:09:28 BURKE, Ian N/A Passage West M M40 00:06:57
209 191 1:09:29 HYNES, Seon N/A Kanturk M M40 00:06:57
210 1147 1:09:32 AHERNE, Neilus N/A Cork M M55 00:06:57
211 734 1:09:34 DUKE, Aidan RIVERSTICK KINSALE M MS 00:06:57
212 1024 1:09:35 MOLONEY, Nicholas NORTH CORK AC M MS 00:06:58
213 157 1:09:37 DALY, Michael CARRAIG NA BHFEAR AC M M40 00:06:58
214 275 1:09:37 PLANT, Una N/A Kinsale F F40 00:06:58
215 1166 1:09:39 BARRETT, John GNEEVEGUILLA AC M M45 00:06:58
216 1062 1:09:40 LINEHAN, Brian N/A Cork M M45 00:06:58
217 150 1:09:42 LUCEY, Jerry N/A Kilmainham M MS 00:06:58
218 1158 1:09:45 O’ CONNOR, Mary RIOCHT F F40 00:06:58
219 391 1:09:45 WILEY, George GALTEE RUNNERS MITCHELSTOWN M MS 00:06:58
220 21 1:09:46 POWER, Brendan N/A Cork M MS 00:06:59
221 555 1:09:48 WILMOTT, Gary WEST LIMERICK AC M MS 00:06:59
222 154 1:09:49 MOTHERWAY, David N/A Midleton M MS 00:06:59
223 1193 1:09:49 SEIGNOT, Dave BERRINGS M M45 00:06:59
224 70 1:09:53 DALY, Cathal MALLOW AC M MS 00:06:59
225 556 1:09:54 HENNESSY, John N/A Ballymacoda M MS 00:06:59
226 1171 1:09:54 DINAN, Paul ST FINBARRS AC M M50 00:06:59
227 917 1:09:55 GILMARTIN, Paul N/A Crecora M M45 00:07:00
228 53 1:09:55 KELLY, Andrew SCHULL TRIATHLON CLUB M MS 00:07:00
229 777 1:09:56 SHEEHAN, Colm MALLOW AC M M40 00:07:00
230 427 1:09:56 HICKEY, Kim PULSE F FS 00:07:00
231 969 1:09:57 MC GUIRE, Brian EAGLE AC M M40 00:07:00
232 12 1:09:59 MAC COITIR, Gearoid N/A Carrigtohill M MS 00:07:00
233 808 1:09:59 O’ BRIEN, Ruairi N/A Carraig Na Bhfear M MS 00:07:00
234 471 1:10:00 O ROURKE, Orla N/A Cobh F F45 00:07:00
235 474 1:10:00 DALY, Noel MALLOW AC M MS 00:07:00
236 829 1:10:09 SWANTON, Finbarr N/A Ballincollig M M45 00:07:01
237 595 1:10:14 FITZGIBBON, Clotilde GRANGE FERMOY F F45 00:07:01
238 430 1:10:16 SHEEHAN, David N/A Mallow M #### 00:07:02
239 488 1:10:18 SAVAGE, Meabh N/A Tramore F F35 00:07:02
240 530 1:10:31 PEAVOY, Medbh DONORE HARRIERS F FS 00:07:03
241 120 1:10:39 RUSSELL, Sam N/A Rochestown M M40 00:07:04
242 704 1:10:54 KAVANAGH, Brian N/A Little Island M M40 00:07:05
243 677 1:10:57 POPE, Gareth FINGAL TRI CLUB M MS 00:07:06
244 327 1:11:03 GUINANE, Elaine EAGLE AC F F35 00:07:06
245 947 1:11:06 MULLINS, Brian ST. FINBARRS AC M MS 00:07:07
246 26 1:11:08 BUCKLEY, Sheila MIDLETON AC F FS 00:07:07
247 123 1:11:10 WARD, John N/A Minane Bridge M MS 00:07:07
248 857 1:11:12 SAUNDERS, Karol N/A Mallowcork M MS 00:07:07
249 345 1:11:12 O’ MAHONY, John N/A Whitechurch M M45 00:07:07
250 1090 1:11:13 MORRISSEY, John DONOUGHMORE AC M M40 00:07:07
251 284 1:11:18 JONES, Margaret MIDLETON ATHLETIC F F40 00:07:08
252 911 1:11:19 BARRY, Mark N/A M MS 00:07:08
253 691 1:11:19 MULLANE, Kieran N/A Carrigaline M M45 00:07:08
254 1021 1:11:23 DOWLING, Donna KILKENNY CITY HARRIERS F FS 00:07:08
255 702 1:11:23 LASTE, John CLONMEL AC M M50 00:07:08
256 155 1:11:23 GRANT, Karen N/A Midleton F FS 00:07:08
257 422 1:11:25 AHERN, Karol N/A Ballinlough M MS 00:07:09
258 393 1:11:25 BUCKLEY, Ray N/A Mallow M MS 00:07:09
259 694 1:11:26 FOGARTY, Cyril CLONMEL AC M M45 00:07:09
260 1012 1:11:29 POWER, Thomas N/A Tramore M M45 00:07:09
261 920 1:11:29 FOLEY, Alan N/A Carrigaline M MS 00:07:09
262 448 1:11:32 RIORDAN, John WATERFORD AC M MS 00:07:09
263 655 1:11:33 CARROLL, Aoife MALLOW AC F FS 00:07:09
264 17 1:11:38 RUSSELL, David N/A Crosshaven M M40 00:07:10
265 1016 1:11:40 GRIFFIN, Laoise WEST LIMERICK F F35 00:07:10
266 807 1:11:44 MC DAID, Ailbhe N/A Cork F FS 00:07:10
267 179 1:11:45 RYAN, Martina THURLES CROKES F F40 00:07:10
268 30 1:11:46 REIDY, Ian LEEVALE M M40 00:07:11
269 914 1:11:48 COLEMAN, John MARATHON CLUB IRELAND M MS 00:07:11
270 974 1:11:51 O’ REGAN, Frank N/A Buttevant M M40 00:07:11
271 472 1:11:54 HARTE, Martin N/A Richmond Hill M MS 00:07:11
272 1142 1:11:55 MURPHY, Roseanna KCH F FS 00:07:11
273 74 1:11:57 WIGGINS, Alan N/A Ladysbridge M M45 00:07:12
274 954 1:11:58 O’ SHEA, June EAGLE AC F FS 00:07:12
275 578 1:11:59 COTTER, Sylvester N/A Rylane M MS 00:07:12
276 625 1:11:59 AHERN, Anthony N/A Rylane M MS 00:07:12
277 1145 1:12:00 COLLINS, Lisa KCH F FS 00:07:12
278 1192 1:12:02 MC DERMOTT, Barry DOUGLAS M MS 00:07:12
279 552 1:12:03 POPE, Brian EDWARD POPE MEMORIAL CLUB M MS 00:07:12
280 896 1:12:04 MILLER, Kenneth N/A Mallow M MS 00:07:12
281 468 1:12:04 MADDEN, Gary WEST LIMERICK M MS 00:07:12
282 127 1:12:10 HICKEY, Cathal BALLINCOLLIG AC M M40 00:07:13
283 548 1:12:12 MC CARTHY, John N/A Carrigaline M MS 00:07:13
284 201 1:12:12 LYNCH, Thomas N/A Mitchelstoown M MS 00:07:13
285 13 1:12:14 COLLINS, Trevor NAAS AC M MS 00:07:13
286 1010 1:12:15 MOLONEY, Paul N/A Buttevant M MS 00:07:13
287 477 1:12:19 GUIDERA, John TEMPLEMORE AC M M45 00:07:14
288 747 1:12:21 MAC KEY, Noreen KILMURRY IBRICKANE/ NORTH CLARE AC F FS 00:07:14
289 985 1:12:23 COFFEY, Patrick N/A Ballinamult M M45 00:07:14
290 364 1:12:24 DALY, Eimer LEEVALE F FS 00:07:14
291 14 1:12:25 COLLINS, Paul NAAS AC M MS 00:07:14
292 616 1:12:27 COTTER, Paul EAGLE AC M M50 00:07:15
293 978 1:12:28 BIRD, Charlie N/A Cork M M45 00:07:15
294 693 1:12:28 JOHNSON, David N/A Clonmel M M40 00:07:15
295 750 1:12:28 NOLAN, Keith BALLINCOLLIG AC M MS 00:07:15
296 681 1:12:29 HEHIR, Stephen N/A M MS 00:07:15
297 256 1:12:30 NOLAN, Michelle ST FINBARRS CORK F F40 00:07:15
298 470 1:12:30 RYAN, Owen COBH TRI CLUB M MS 00:07:15
299 861 1:12:30 FLEMING, James WEST WATERFORD AC M M45 00:07:15
300 1167 1:12:31 DALY, Siobhan RIOCHT F FS 00:07:15
301 684 1:12:31 SMYTH, Leslie COOLQUILL A/C M M55 00:07:15
302 689 1:12:32 O’ SULLIVAN, Alison CLONLIFFE HARRIERS AC F F35 00:07:15
303 1140 1:12:35 FORBES, Peadar N/A Cork M MS 00:07:15
304 866 1:12:36 HURLEY, Maria BANTRY AC F F50 00:07:16
305 1095 1:12:40 GANNON, Shane MIDLETON AC M M40 00:07:16
306 413 1:12:42 MC AULIFFE, Stephen MALLOW AC M M50 00:07:16
307 1050 1:12:43 LEONARD, Declan N/A Mallow M MS 00:07:16
308 1044 1:12:43 SCANNELL, John EAGLE AC M M40 00:07:16
309 832 1:12:44 WALSH, Colin APPLE RUNNING M MJ 00:07:16
310 1185 1:12:49 DUGGAN, Peter N/A M MS 00:07:17
311 544 1:12:50 BARLOW, Ivan CLONMEL AC M M40 00:07:17
312 169 1:12:53 O’ SULLIVAN, Eamonn N/A Riverstick M MS 00:07:17
313 495 1:12:55 FORREST, Richard N/A Blarney M M40 00:07:17
314 1162 1:12:56 MC GRATH, Michael EAGLE AC M M50 00:07:18
315 503 1:13:00 MC NAMARA, Jim DONORE HARRIERS M M70 00:07:18
316 1078 1:13:03 COLLINS, Lawrence N/A Midleton M MS 00:07:18
317 175 1:13:04 WILKINSON, Kevin BILBOA A.C. M MS 00:07:18
318 1058 1:13:05 GONZALEZ, Fabio N/A Cork M MS 00:07:18
319 581 1:13:09 KELLEHER, Ide MALLOW AC F F40 00:07:19
320 454 1:13:10 O’ DONOVAN, Kevin N/A Wilton M MS 00:07:19
321 512 1:13:11 FREEMAN, Sean GRANGE FERMOY AC M M50 00:07:19
322 586 1:13:12 FENNESSY, Kevin N/A Kildinan M MS 00:07:19
323 73 1:13:17 RIORDAN, Dick NORTH CORK M M45 00:07:20
324 906 1:13:20 BRENNAN, Ger N/A Piltown M MS 00:07:20
325 710 1:13:20 NASH, Kevin N/A Glanmire M #### 00:07:20
326 984 1:13:21 RYAN, Don MIDLETON AC M MS 00:07:20
327 791 1:13:27 COONEY, Sean N/A Carrigtohill M M40 00:07:21
328 838 1:13:28 POWER, Keith N/A Lisnagry M MS 00:07:21
329 721 1:13:29 CAHILL, Breda MIDLETON AC F F40 00:07:21
330 993 1:13:30 BROPHY, David MALLOW AC M M45 00:07:21
331 360 1:13:32 CHOJAN, Matt MIDLETON AC M MS 00:07:21
332 922 1:13:34 SPILLANE, Caroline LEEVALE F FS 00:07:21
333 535 1:13:34 DURAND, Bernard N/A Clonmel M M40 00:07:21
334 1820 01:13:35 WILEY, Darragh MALLOW AC M M40 00:07:22
335 729 1:13:38 O’ SULLIVAN, Jim N/A Carrignavar M MS 00:07:22
336 1063 1:13:40 O’ CONNOR, Paul N/A Douglas M MS 00:07:22
337 686 1:13:44 LANE, Danny N/A Carrigaline M MS 00:07:22
338 384 1:13:49 BURNS, Kevin N/A Cloughjordan M M45 00:07:23
339 566 1:13:49 O MAHONY, Patrick N/A Ballyphehane M M40 00:07:23
340 892 1:13:56 O’ REGAN, Graham CLONMEL AC M MS 00:07:24
341 806 1:13:59 MAUNSELL, Nicola N/A Clonmel F F40 00:07:24
342 392 1:14:00 WILEY, Charlene GALTEE RUNNERS MITCHELSTOWN F FS 00:07:24
343 370 1:14:01 LISTON, John N/A Mallow M MS 00:07:24
344 1178 1:14:05 OWENS, Mervyn MALLOW AC M MS 00:07:24
345 1120 1:14:06 O MULLAIN, Micheal ST FINBARRS M MS 00:07:25
346 972 1:14:09 FRAWLEY, Barry N/A Glanmire M MS 00:07:25
347 435 1:14:10 WALSH, Sandra N/A Grenagh F F40 00:07:25
348 1119 1:14:16 O’ LEARY, William N/A Frankfield M MS 00:07:26
349 511 1:14:16 RENTON, Sinead N/A Mallow, F F35 00:07:26
350 1085 1:14:17 O’ SULLIVAN, Mike KANTURK RFC M MS 00:07:26
351 889 1:14:18 SHEEHAN, Mark N/A Mallow M MS 00:07:26
352 997 1:14:19 O DONOVAN, John. SHANBALLYMORE M M50 00:07:26
353 328 1:14:23 KINGSTON, Finbar YOUGHAL AC M MS 00:07:26
354 287 1:14:24 CAREY, Emer CRUSADERS DUBLIN F FS 00:07:26
355 469 1:14:25 QUAID, Kevin N/A Dromahane M MS 00:07:26
356 623 1:14:27 MEEHAN, Ger LIMERICK COUNTRY CLUB AC M M50 00:07:27
357 38 1:14:27 ARRIGAN, Deirdre EAGLE AC F F35 00:07:27
358 650 1:14:28 HOLMES, Patrick J DUNDRUM AC M M55 00:07:27
359 665 1:14:28 EARLS, John NONE M M50 00:07:27
360 501 1:14:29 BOYLE, Eoin N/A Cork M MS 00:07:27
361 603 1:14:29 LYNCH, Ann LEEVALE F F40 00:07:27
362 247 1:14:31 O’ DONOVAN, Chris BANDON AC M M45 00:07:27
363 78 1:14:32 NUNAN, Denis CIVIL SERVICE HARRIERS M MS 00:07:27
364 613 1:14:32 WALSH, John N/A Cloyne M M40 00:07:27
365 330 1:14:33 HEALY, Pat MALLOW A/C M MS 00:07:27
366 992 1:14:37 TWOHIG, Margaret N/A Killeens F FS 00:07:28
367 831 1:14:39 WALSH, Anthony APPLE RUNNING M M50 00:07:28
368 1041 1:14:39 MC CARTHY, Robert GRANGE/FERMOY M MS 00:07:28
369 310 1:14:43 BOLSTER, Lorraine MALLOW ATHLETIC CLUB F FS 00:07:28
370 843 1:14:46 HAYES, Michael N/A Fermoy M MS 00:07:29
371 37 1:14:50 BRANSFIELD, Pat ST NICHOLAS M M50 00:07:29
372 213 1:14:53 BOWEN, Noel N/A Cork M M45 00:07:29
373 483 1:14:59 QUINN, Noel AN GHEALTACHT M M40 00:07:30
374 882 1:15:01 KILMARTIN, Michael MICHAEL KILMARTIN M M40 00:07:30
375 1100 1:15:03 CORCORAN, Paul N/A Cork M M40 00:07:30
376 597 1:15:06 DEEGAN, Yvonne N/A Clarina F F40 00:07:31
377 49 1:15:09 DRENNAN, Angeline WEST WATERFORD F F35 00:07:31
378 893 1:15:15 OCONNELL, Shane N/A Cork City M MS 00:07:31
379 475 1:15:17 REA, Micheal N/A Garryduff M MS 00:07:32
380 531 1:15:19 BOLAND, Lisa EAGLE F F45 00:07:32
381 162 1:15:22 MC CARTHY, Tim EAGLE AC M MS 00:07:32
382 888 1:15:24 MC GOWAN, Sean N/A Kilkenny M M55 00:07:32
383 873 1:15:26 JOHNSON, Dermot N/A Fermoy M M40 00:07:33
384 184 1:15:33 O’ BRIEN, Barry DONERAILE M MS 00:07:33
385 671 1:15:39 KIELY, Victor NONE M M45 00:07:34
386 1087 1:15:40 JONES, Stephen N/A M MS 00:07:34
387 84 1:15:42 MULCAHY, Mairead MALLOW F FS 00:07:34
388 786 1:15:44 FOLEY, John WEST WATERFORD AC M M60 00:07:34
389 1177 1:15:47 MURPHY, Geoff CLONAKILTY AC M M45 00:07:35
390 959 1:15:48 O’ BRIEN, Margaret CLONAKILTY AC F FJ 00:07:35
391 633 1:15:52 TWOMEY, Con N/A Millstreet M M50 00:07:35
392 1174 1:15:53 O’ SULLIVAN, Shane N/A C/O Mallow Ac M MS 00:07:35
393 230 1:15:53 HENNESSY, Kenneth LEEVALE M MS 00:07:35
394 822 1:15:57 BROWNE, Gerard N/A M M45 00:07:36
395 732 1:16:00 O GRADY, Billy NEWSCASTLE M M45 00:07:36
396 980 1:16:01 MURPHY, Samuel N/A Rathcoole M MS 00:07:36
397 331 1:16:03 MERRITT, Denis N/A Mallow M M45 00:07:36
398 1160 1:16:04 AHERN, Aisling LIMERICK COUNTRY CLUB F FS 00:07:36
399 846 1:16:05 O CAOIMH, Donal N/A Glanmire M MS 00:07:36
400 567 1:16:08 MURPHY, Dan N/A Dungarvan M MS 00:07:37
401 193 1:16:16 CARROLL, Eoin N/A Doneraile M MS 00:07:38
402 383 1:16:17 WALSH, Mark MIDLETON M M50 00:07:38
403 1139 1:16:17 FITZGERALD, Garry N/A Glounthaune M MS 00:07:38
404 585 1:16:18 PADDEN, Ray KOSTAL M MS 00:07:38
405 62 1:16:20 DONOVAN, Clive N/A Grenagh M MS 00:07:38
406 241 1:16:21 O’ HERLIHY, Aidan MIDLETON AC M MS 00:07:38
407 819 1:16:21 RIORDAN, Frank N/A Cork M M55 00:07:38
408 589 1:16:27 HEALY, Seanie BALLYDESMOND M MS 00:07:39
409 698 1:16:27 SMYTH, Damien N/A M M40 00:07:39
410 945 1:16:30 FITZGERALD, Simon MIDLETON AC M M40 00:07:39
411 939 1:16:31 FOX, Conor DONOUGHMORE AC M M40 00:07:39
412 1131 1:16:32 MC CURTIN, Deirdre N/A Fermoy F FS 00:07:39
413 214 1:16:37 RIORDAN, Donal N/A Cork M M45 00:07:40
414 1048 1:16:38 KENNEDY, Eileen GALTEE RUNNERS F F35 00:07:40
415 545 1:16:41 BOURKE BARLOW, Fiona CLONMEL AC F F40 00:07:40
416 708 1:16:42 O’ CONNELL, Dan DONOUGHMORE AC M MS 00:07:40
417 916 1:16:44 NAUGHTON, Brendan N/A Lower Meelick M M45 00:07:40
418 575 1:16:45 SHORTALL, David N/A Dunbell M M45 00:07:41
419 497 1:16:47 O’ HANLON, Declan N/A Carrigaline M MS 00:07:41
420 253 1:16:50 DALY, Bredan NORTH CORK AC M MS 00:07:41
421 796 1:16:51 LAVERY, Siobhan N/A Mallow F F45 00:07:41
422 604 1:16:54 BLAND, Katie N/A Crosshaven F FS 00:07:41
423 568 1:16:54 BUCKLEY, Danielle N/A Buttevant F FS 00:07:41
424 108 1:16:54 FLANAGAN, Brendan N/A Mallow M MS 00:07:41
425 902 1:16:57 O’ SHEA, Mary N/A F FS 00:07:42
426 346 1:16:59 O’ DONOVAN, Gerard N/A Whitechurch M MS 00:07:42
427 756 1:16:59 O RIORDAN, Sean N/A Midleton M M45 00:07:42
428 1096 1:16:59 KIERANS, Paul MIDLETON AC M M45 00:07:42
429 50 1:17:04 COOGAN, Darren N/A Dungarvan M MS 00:07:42
430 938 1:17:08 BOYCE, Edwina EAGLE AC F FS 00:07:43
431 1037 1:17:08 KELLY, Sean LIMERICK COUNTRY CLUB RUNNERSM M45 00:07:43
432 876 1:17:16 CAREY, Gavin N/A Cork M MS 00:07:44
433 781 1:17:16 CREEDON, Josephine N/A Millstreet F F40 00:07:44
434 845 1:17:19 FLEMING, Catherine N/A Douglas F FS 00:07:44
435 727 1:17:19 WHITE, Karen N/A Ovens F FS 00:07:44
436 339 1:17:22 O’ BRIEN, Darren N/A Mallow M MS 00:07:44
437 27 1:17:25 O’ DONOGHUE, Donal LITTLE ISLAND M M45 00:07:44
438 126 1:17:26 DUNLEAVY, John N/A Grange M M45 00:07:45
439 519 1:17:26 CORCORAN, Nora EAGLE A.C. F FS 00:07:45
440 396 1:17:26 MURPHY, Ciaran MALLOW AC M MS 00:07:45
441 446 1:17:27 SLATTERY, Marie KCH F F35 00:07:45
442 263 1:17:28 MURNANE, Gerard N/A Grenagh M M50 00:07:45
443 654 1:17:30 BLACK, Joy EAGLE A.C. F FS 00:07:45
444 344 1:17:30 SMYTH, Miriam SPORTSWORLD TERENURE DUBLIN F FS 00:07:45
445 300 1:17:31 BURKE, Gavin N/A Mallow M MS 00:07:45
446 840 1:17:33 O’ CALLAGHAN, Barry MALLOW AC M M40 00:07:45
447 764 1:17:42 FITZGERALD, Brendan N/A Co Clare M MS 00:07:46
448 587 1:17:42 SHEEHAN, Denis N/A Mallow M M60 00:07:46
449 804 1:17:50 WALSH, Jimmy NA M MS 00:07:47
450 1057 1:17:56 URENDES, Francisco (Paco)N/A Cork M MS 00:07:48
451 115 1:18:02 MYERS, Patrick N/A Mallow M M45 00:07:48
452 170 1:18:06 BUCKLEY, Mary DONOUGHMORE AC F F45 00:07:49
453 1014 1:18:06 SHEEHAN, John N/A Blarney M M45 00:07:49
454 941 1:18:09 O’ CONNOR, Timmy NONE M MS 00:07:49
455 748 1:18:15 O DONNELL, Anne WESTWATERFORD AC F F45 00:07:50
456 45 1:18:20 REIDY, Brendan WATERFORD AC M M45 00:07:50
457 171 1:18:21 GEANEY, Andrew APPLE M M55 00:07:50
458 411 1:18:25 O’ CONNELL, Anne MALLOW F F40 00:07:51
459 357 1:18:26 MURPHY, Mark CARRIGALINE ROAD RUNNERS AC M MS 00:07:51
460 605 1:18:26 WALSHE, John EAST CORK AC M M60 00:07:51
461 524 1:18:28 COLLINS, John MALLOW AC M M40 00:07:51
462 973 1:18:29 O’ SULLIVAN, Martin N/A Mallow M M40 00:07:51
463 825 1:18:33 HENNESSY, Philip N/A Clonmel M MS 00:07:51
464 1135 1:18:36 NUDDS, Graham N/A Clogheen M MS 00:07:52
465 1134 1:18:38 SANTRY, John N/A Castlefreke M MS 00:07:52
466 1019 1:18:39 EVANS, Mairead N/A F FS 00:07:52
467 395 1:18:42 POWELL, Sean N/A Mallow M M50 00:07:52
468 20 1:18:44 CAMPBELL, Rhona MALLOW AC F FS 00:07:52
469 921 1:18:46 GRIFFIN, Carmel N/A Bandon F FS 00:07:53
470 834 1:18:46 CALLAN, Pauline BANDON AC F F35 00:07:53
471 821 1:18:47 MC KNIGHT, Roy SCHULL TRI CLUB M M40 00:07:53
472 527 1:18:48 DESMOND, Ciaran LEEVALE M M50 00:07:53
473 1107 1:18:51 CLIFFORD, Gina N/A Kildimo F F35 00:07:53
474 927 1:18:52 HICKEY, Sean N/A Cork M MS 00:07:53
475 778 1:18:56 PERRY, Anne-Marie MIDLETON AC F F40 00:07:54
476 1082 1:18:58 MC CARTHY, Kevin N/A Mallow M MS 00:07:54
477 627 1:19:00 MURPHY, Sean Patrick N/A BLARNEY M MS 00:07:54
478 995 1:19:02 MEHIGAN, Sean MALLOW AC M M45 00:07:54
479 1023 1:19:04 O’ DONOGHUE, Robin N/A Glanmire M MJ 00:07:54
480 1116 1:19:06 MC GRATH, Donal EAGLE AC M M45 00:07:55
481 847 1:19:07 BEER, Mark N/A Lismore M M40 00:07:55
482 223 1:19:08 O’ MURCHU, Donal N/A Glanworth M M40 00:07:55
483 131 1:19:08 HOULIHAN , Orla N/A Glanmire F FS 00:07:55
484 308 1:19:09 O’ CONNELL, Niall N/A Killeens M M45 00:07:55
485 133 1:19:10 PROCTOR, Paschal WEST WATERFORD AC M M60 00:07:55
486 506 1:19:10 KEOGH, Fionnuala LIMERICK COUNTRY CLUB F F40 00:07:55
487 416 1:19:10 BURKE, David UCC STAFF A.C. M M40 00:07:55
488 915 1:19:11 O DEA, Sean CLONMEL ATHLETIC CLUB M M45 00:07:55
489 1018 1:19:13 MULCAIR, John N/A Corbally M M40 00:07:55
490 132 1:19:15 GAFFNEY, Andrea WEST WATERFORD AC M M40 00:07:55
491 895 1:19:17 O’ CALLAGHAN, Sean DONOUGHMORE AC M M40 00:07:56
492 1163 1:19:17 O’ CRUALAOI, Michael ST FINBARRS AC M M45 00:07:56
493 267 1:19:20 HEFFERNAN, Dee N/A Cork F FS 00:07:56
494 1157 1:19:20 DRISCOLL, Christy ST FINBARRS M M60 00:07:56
495 380 1:19:22 HALLORAN, Michael THURLES CROKES M M45 00:07:56
496 47 1:19:23 O’ MAHONEY , James MALLOW AC M MS 00:07:56
497 743 1:19:26 LONERGAN, Adrian CLONMEL AC M MS 00:07:57
498 168 1:19:27 KENNEDY, Michael N/A Midleton M MS 00:07:57
499 975 1:19:27 HARTE, Bertie N/A Banteer M MS 00:07:57
500 991 1:19:28 AHERNE, Paul KILFINANE AC M MS 00:07:57
501 824 1:19:28 MULLANEY, John N/A Raheen M M45 00:07:57
502 883 1:19:29 MURPHY, Padraig N/A Mallow M MS 00:07:57
503 1080 1:19:30 BEASLEY, Miriam N/A Douglas F F35 00:07:57
504 891 1:19:30 CASEY, Chris N/A Grenagh M M45 00:07:57
505 860 1:19:32 DUNFORD, Joanne WEST WATERFORD AC F F40 00:07:57
506 137 1:19:32 BROWNE, Kathleen N/A Mallow F F45 00:07:57
507 173 1:19:32 REA, Annmarie NORTH CORK AC F FS 00:07:57
508 165 1:19:35 ARRIGAN, Pat N/A Cork M M50 00:07:58
509 717 1:19:38 CAREY, Tony N/A Cork M MS 00:07:58
510 792 1:19:38 DURITY, Natasha N/A Carrigtohill F F35 00:07:58
511 815 1:19:39 TRACEY, Eoin N/A Glanmire F FS 00:07:58
512 868 1:19:40 O’ LEARY, John LEEVALE AC M M70 00:07:58
513 433 1:19:41 COGAN, Denis NONE M MS 00:07:58
514 667 1:19:41 O’ MAHONY, Philip N/A Midleton, M MS 00:07:58
515 498 1:19:41 O’ BRIEN, Karen N/A Cobh F F45 00:07:58
516 56 1:19:41 BARRY, Brian N/A Grenagh M MS 00:07:58
517 67 1:19:43 MULLANE, Tommy N/A Kanturk M M45 00:07:58
518 565 1:19:44 MURPHY, Barry N/A Doneraile M M45 00:07:58
519 899 1:19:44 CROWLEY, Liam N/A Bandon M M40 00:07:58
520 830 1:19:45 O FLAHERTY, Ciaran N/A Frankfield M MS 00:07:58
521 1077 1:19:50 KELLEHER, Con WATERFORD AC M M60 00:07:59
522 337 1:19:53 MC CANN, Joanne N/A Doneraile F F35 00:07:59
523 790 1:19:55 COONEY, Ed N/A Carrigtwohill M M45 00:07:59
524 32 1:19:57 HOLLAND, Siobhan NOVARTIS F F35 00:08:00
525 884 1:20:00 DALY, Johnny NORTH CORK AC M M45 00:08:00
526 1040 1:20:01 PHILPOTT, Richie KANTURK M MS 00:08:00
527 90 1:20:06 MORRIS, Alan N/A Blackrock M MS 00:08:01
528 496 1:20:15 QUINN, Edel LEEVALE AC F FS 00:08:01
529 812 1:20:16 CONNOLLY, Brian N/A Glanmire M MS 00:08:02
530 283 1:20:18 LANE, John N/A Banter M MS 00:08:02
531 209 1:20:25 KELLY, Jason N/A Cork M MS 00:08:02
532 309 1:20:28 SUGRUE, Shirley MALLOW ATHLETIC CLUB F F35 00:08:03
533 166 1:20:30 REILLY, Daithi NAVY AC M M45 00:08:03
534 574 1:20:33 SHORTALL, Anne Marie KCH F F40 00:08:03
535 473 1:20:42 O’ FLYNN, Esme N/A Richmond Hill F FS 00:08:04
536 571 1:20:43 O SULLIVAN, Daire N/A Mallow M MS 00:08:04
537 1191 1:20:43 HOULIHAN, Shane BULGADEN M MS 00:08:04
538 755 1:20:58 MURPHY, Patrick N/A Kildorrery M M40 00:08:06
539 453 1:21:00 LYNCH, Eoin N/A Cork M MS 00:08:06
540 736 1:21:02 O’ LEARY, Michael N/A Callan M MS 00:08:06
541 194 1:21:06 AHERNE, Clive N/A Mallow M MS 00:08:07
542 1825 01:21:07 NAGLE, Eamonn MALLOW AC M M40 00:08:07
543 117 1:21:09 BRENNAN, Ian EAGLE AC M M45 00:08:07
544 325 1:21:10 MC CARTHY, Debbie N/A Kinsale F F40 00:08:07
545 1188 1:21:10 HARRINGTON BUCKLEY, KittyN/A F F45 00:08:07
546 726 1:21:12 RING, Frances MILLSTREET ATHLETIC F F40 00:08:07
547 770 1:21:14 MORAN, Gemma N/A Carrigaline F F45 00:08:07
548 757 1:21:15 HAYES, Damien N/A Cork M MS 00:08:07
549 728 1:21:16 LEVIS, John N/A Monkstown M M40 00:08:08
550 909 1:21:27 O SHEA, John MALLOW AC M MS 00:08:09
551 260 1:21:27 MULLINS, Maria NORTHCORK A/C F F45 00:08:09
552 431 1:21:34 SHEEHAN, Regina N/A Mallow F F35 00:08:09
553 138 1:21:42 BRENNAN, Rose N/A Kanturk F FS 00:08:10
554 278 1:21:48 O’ HICI, Labhras N/A Magh Ealla M MS 00:08:11
555 811 1:21:49 TRACEY, Maria N/A Glanmire M MS 00:08:11
556 547 1:21:52 PARKER, Noel N/A Youghal M M45 00:08:11
557 534 1:21:53 DURAND, Orla CLONMEL AC F F40 00:08:11
558 601 1:21:53 DINEEN, Michael GNEEVEGUILA AC M M50 00:08:11
559 1172 1:21:55 KEANE, Laura YOUGHAL AC F FS 00:08:11
560 669 1:21:57 BUCKLEY, Sinead MIDLETON AC F FS 00:08:12
561 588 1:21:59 SHEEHAN, Avril N/A Killarney F F40 00:08:12
562 69 1:22:00 KINGSTON, Mary YOUGHAL AC F F35 00:08:12
563 850 1:22:08 O SULLIVAN, Aoife N/A Mallow F FS 00:08:13
564 242 1:22:10 O’ BRIEN, Shane N/A Mallow M MS 00:08:13
565 700 1:22:19 CORCORAN, Sunita EAGLE ATHLETICS F F40 00:08:14
566 826 1:22:20 FLANNELLY, Eamon N/A Dublin M MS 00:08:14
567 572 1:22:31 MELLERICK, Linda N/A F F45 00:08:15
568 324 1:22:31 BULYCEVA, Agne KILFINANE A/C F FS 00:08:15
569 894 1:22:32 KENT, Robert N/A Togher M MS 00:08:15
570 315 1:22:38 HARVEY, Noreen MALLOW AC F F40 00:08:16
571 630 1:22:39 O SULLIVAN, Hazel ST FINBARRS F F35 00:08:16
572 494 1:22:44 BRENNAN, Dermot NONE M MS 00:08:16
573 1005 1:22:45 MC GUINNESS, Alan DEPUY RUNNING CLUB M M45 00:08:16
574 362 1:22:53 FITZGERALD, Michael N/A Mallow M MS 00:08:17
575 968 1:22:55 FITZGERALD, Claire MIDLETON AC F F35 00:08:18
576 561 1:22:56 MC CARTHY, Paudie N/A Ballyvolane M M50 00:08:18
577 635 1:22:58 COLLINS, Eileen CLONAKILTY ROAD RUNNERS F F35 00:08:18
578 956 1:22:58 O’ CONNOR, Adrian N/A Union Quay M MS 00:08:18
579 356 1:23:01 HEALY, Mary-Clare GRANGE FERMOY F F40 00:08:18
580 225 1:23:03 CAREY, Pat N/A Killmallock M MS 00:08:18
581 403 1:23:04 NODWELL, Adrian N/A Mallow M MS 00:08:18
582 116 1:23:11 PRATT, Michael N/A Fermoy M M50 00:08:19
583 998 1:23:15 WHELAN, Yvonne N/A Askeaton F F35 00:08:20
584 110 1:23:15 KEARNEY, Lilian N/A Kilmallock F FS 00:08:20
585 183 1:23:16 MULCAHY, Mary ST FUNBARRS F F50 00:08:20
586 1146 1:23:21 MC LAUGHLIN, Garth ALU AC M M40 00:08:20
587 1108 1:23:25 NI LUASA, Grainne N/A Maigh Chromtha F FS 00:08:20
588 1009 1:23:26 PERRY, Sheila CLONMEL AC F F40 00:08:21
589 320 1:23:27 OSULLIVAN, Darragh N/A Douglas, M MS 00:08:21
590 799 1:23:28 DUFFY, Oonagh CLONMEL AC F F35 00:08:21
591 322 1:23:29 BUCKLEY, Katie DONOUGHMORE A.C. F FS 00:08:21
592 783 1:23:30 CASEY, Donal GARDA AC M MS 00:08:21
593 579 1:23:32 CROWLEY, Kevin N/A Ballyhooly M M40 00:08:21
594 447 1:23:34 BERGIN, Don TEMPLEMORE AC M M40 00:08:21
595 1827 01:23:35 VOWLES, Gerard MALLOW AC M M40 00:08:21
596 1035 1:23:35 MOLONEY, Greg LIMERICK COUNTRY CLUB AC M MS 00:08:21
597 842 1:23:36 RYAN, Tim N/A Dooradoyle M MS 00:08:22
598 554 1:23:41 FORDE, Jerry N/A Blarney M M60 00:08:22
599 722 1:23:48 LONG, Cian N/A Cork M MS 00:08:23
600 363 1:23:48 FINN, Maire N/A Mallow F FS 00:08:23
601 54 1:24:02 LYNCH, Frances N/A Cork F F50 00:08:24
602 245 1:24:07 CAGNEY, Ciara N/A Charleville, F FS 00:08:25
603 794 1:24:11 HEGARTY, Lisa N/A F FS 00:08:25
604 61 1:24:12 ASKINS, Paul DOONEEN AC M MS 00:08:25
605 543 1:24:14 RYAN, Shonagh N/A Kanturk F FS 00:08:25
606 376 1:24:16 KEARNEY, Jayne N/A Tralee F F40 00:08:26
607 156 1:24:18 TWOMEY, Bernadette MIDLETON AC F F40 00:08:26
608 34 1:24:21 REIDY, Fidelma NORTH CORK AC F FS 00:08:26
609 1055 1:24:30 MURPHY, Angela N/A Carrigrohane F F50 00:08:27
610 352 1:24:32 JONES, Vincent Paul N/A Ardfinnan M MS 00:08:27
611 859 1:24:36 EGAN, Frances MALLOW AC F F35 00:08:28
612 1068 1:24:41 DESMOND, John EAGLE AC M M45 00:08:28
613 837 1:25:02 CURTIN, Liam NONE M MS 00:08:30
614 387 1:25:04 CRONIN, Niall N/A Mallow M MS 00:08:30
615 205 1:25:04 LYONS, Jennifer N/A Mallow F FS 00:08:30
616 92 1:25:07 O’ BRIEN, Patrick REGULAR RUNNER M M65 00:08:31
617 71 1:25:10 LEETCH, Jenna N/A Castlelyons F FS 00:08:31
618 1148 1:25:12 KEANE, Marie DOONEEN A.C. F F40 00:08:31
619 619 1:25:19 TWOMEY, Evan EAGLE AC M MS 00:08:32
620 919 1:25:20 LOCHADEN, Colin N/A Midleton M MS 00:08:32
621 573 1:25:24 AHERNE, Eddie N/A Buttevant M M45 00:08:32
622 643 1:25:25 RING, Donal N/A Cork M MS 00:08:33
623 782 1:25:26 TARRANT, Sheila MILLSTREET F F40 00:08:33
624 410 1:25:26 MURPHY, Terry N/A Cobh M M45 00:08:33
625 164 1:25:31 HANLEY, Ellen N/A Mitchelstown F F35 00:08:33
626 528 1:25:34 O SULLIVAN, Catherine GALTEE RUNNERS F F35 00:08:33
627 276 1:25:36 PLANT, Barry N/A Kinsale M M40 00:08:34
628 1154 1:25:39 BROWNE, Matthew CARRIG NA BHFEAR M MS 00:08:34
629 417 1:25:42 BARRY, Orla N/A Rathcooney F FS 00:08:34
630 961 1:25:50 NEVILLE, Peter N/A Doneraile M MS 00:08:35
631 504 1:25:53 BARRY, Louise N/A Cork F FS 00:08:35
632 1075 1:25:56 MORRIS, Jennifer N/A Mallow F F35 00:08:36
633 617 1:25:56 BARRY, Maura N/A Limerick F FS 00:08:36
634 725 1:26:06 CASEY, Miriam BANDON FIT4LIFE F F35 00:08:37
635 368 1:26:07 KELLY, Patrick N/A Douglas M MS 00:08:37
636 685 1:26:08 SEXTON, Kieran N/A Rusheen,Cork M MS 00:08:37
637 307 1:26:10 SLOANE, James N/A Bweeng M MS 00:08:37
638 1117 1:26:11 GALLAGHER, Mark NONE M MS 00:08:37
639 7 1:26:11 BOURKE, Brendan MALLOW AC M MS 00:08:37
640 167 1:26:13 KENNEDY, Yvonne MIDLETON AC F F35 00:08:37
641 104 1:26:15 MC MAHON, Daniel N/A Killarney M MS 00:08:38
642 458 1:26:15 LINEHAN, Jennifer N/A Blarney F F35 00:08:38
643 341 1:26:16 O’ BRIEN, Pat MALLOW M M45 00:08:38
644 1059 1:26:20 DALY, Liam N/A Cork M MS 00:08:38
645 1124 1:26:23 O’ SULLIVAN, Nigel N/A Blackrock M M40 00:08:38
646 374 1:26:25 SHEEHAN, Tadhg GAEL SCOIL MALLOW M MS 00:08:39
647 875 1:26:28 FITZGERALD, John N/A Midleton M MS 00:08:39
648 1008 1:26:30 BEGLEY, Fiona BANTRY F F45 00:08:39
649 675 1:26:35 O’ SHAUGHNESSY, Linda WESTBURY HARRIERS F F35 00:08:39
650 967 1:26:35 BINOYA, Jamir N/A Buttevant M MS 00:08:39
651 273 1:26:38 EDWARDS, Trevor N/A Bweeng M MS 00:08:40
652 1113 1:26:39 MC TAGGART, Colin MUNSTER ASSOCIATION OF REFEREESM M45 00:08:40
653 221 1:26:40 ROCHE, Adrian N/A Sandyford M MS 00:08:40
654 1129 1:26:41 KEARNEY, Batt LEEVALE AC M M55 00:08:40
655 634 1:26:42 GOLDEN, Don DONOUGHMORE AC M MS 00:08:40
656 523 1:26:49 O’ CONNELL, Adrian N/A Cork M MS 00:08:41
657 562 1:26:51 SHEEHAN, Janice N/A Millstreet F F35 00:08:41
658 409 1:26:54 O’ CONNELL, Donal N/A Mallow M M40 00:08:41
659 55 1:26:55 O’ KEEFFE, Louise N/A Ballincollig F F45 00:08:41
660 690 1:26:56 BARRY, John N/A Drommahane M M45 00:08:42
661 1169 1:27:01 MULLANE, Michael N/A C/O Mallow Ac M M55 00:08:42
662 1091 1:27:04 BYRNE, Michelle KILLROADRUNNERS AC F FS 00:08:42
663 244 1:27:05 FOUHY, Aoife MIDLETON AC F FS 00:08:42
664 1047 1:27:05 LENEHAN, John N/A M MS 00:08:42
665 903 1:27:08 BROWNE, Leona N/A Glanmire F FS 00:08:43
666 657 1:27:09 COLEMAN, Helena N/A Cork F F40 00:08:43
667 505 1:27:09 O’ SULLIVAN, Colm N/A M MS 00:08:43
668 358 1:27:16 O’ DONOVAN, Claire N/A Mallow F FS 00:08:44
669 293 1:27:18 O’ CONNELL, Pat N/A Dromahane M M45 00:08:44
670 536 1:27:20 O DONOVAN, David N/A Cork M MS 00:08:44
671 305 1:27:32 MC SWEENEY, Cormac N/A Fermoy M M40 00:08:45
672 340 1:27:35 DINEEN, Ruairi N/A Fermoy M MS 00:08:45
673 265 1:27:35 SJABERG, Hans Eldar N/A Fermoy M M40 00:08:45
674 673 1:27:38 MAHER, Anne CLONMEL AC F F40 00:08:46
675 718 1:27:39 KELLEHER, Fiona N/A Whitechurch F F40 00:08:46
676 449 1:27:40 BARRETT, Sinead MOOREABBEY MILERS F FS 00:08:46
677 631 1:27:41 O SULLIVAN, Mortimer N/A Killeens M M50 00:08:46
678 3 1:27:43 O’ CARROLL, Brendan N/A Limerick M MS 00:08:46
679 1122 1:27:50 FILAN, Peter N/A Rochestown M M40 00:08:47
680 440 1:27:51 NEUMERZHITSKAYA, Alina N/A Cahir F FJ 00:08:47
681 306 1:27:55 COUGHLAN, Shane N/A Mallow M MS 00:08:48
682 958 1:27:59 O’ SULLIVAN, Susan N/A Ballyvolane F F45 00:08:48
683 188 1:28:00 KELLEHER, Jer N/A Glanmire M M50 00:08:48
684 905 1:28:05 CULLIGAN, Ciaran NONE M M40 00:08:48
685 72 1:28:05 RIORDAN, Jacqueline NORTH CORK F F50 00:08:48
686 466 1:28:14 MAHER, Patrick N/A Minane Bridge M MS 00:08:49
687 1186 1:28:14 WHYTE, Stephanie N/A F FS 00:08:49
688 1126 1:28:18 MC GRATH, Miah MIDLETON AC M M40 00:08:50
689 487 1:28:19 RYAN, Maria THURLES CROKES F FS 00:08:50
690 762 1:28:27 HORAN, Brendan N/A Thurles M MS 00:08:51
691 65 1:28:29 DUFFY, Sarah N/A Waterfall F FS 00:08:51
692 343 1:28:30 MURPHY, Brian N/A Churchtown M MS 00:08:51
693 1098 1:28:32 SADD, Viv N/A Cork M M40 00:08:51
694 232 1:28:35 AHERNE, Liam N/A Mallow M MS 00:08:51
695 239 1:28:41 WALSH, Bridie CHARLEVILLE NORTH CORK F F45 00:08:52
696 607 1:28:42 O’ CONNOR, Linda NORTH CORK AC F F35 00:08:52
697 1043 1:28:43 O’ RIORDAN, Fiona EAGLE AC F F40 00:08:52
698 594 1:28:52 STAVROU, Amanda ST FINBARRS F F50 00:08:53
699 46 1:28:55 LEHANE O MAHONEY, Barbara MALLOW AC F FS 00:08:53
700 48 1:28:55 LEHANE, Bridget CLONAKILITY F F35 00:08:53
701 599 1:28:56 GROEGER, Gillian N/A Mallow F F35 00:08:54
702 421 1:28:59 MC GRATH, Marcella DOONEEN AC F F35 00:08:54
703 640 1:29:02 TIDESWELL, Julie N/A Ballyporeen F F45 00:08:54
704 44 1:29:02 LEHANE, Niamh N/A Rochestown F F35 00:08:54
705 19 1:29:02 GARVEY, Valerie MALLOW F F40 00:08:54
706 1130 1:29:03 CONROY, Gwen N/A Watergrasshill F F35 00:08:54
707 751 1:29:04 BRITTON, Pat N/A Mallow M MS 00:08:54
708 412 1:29:16 O’ BRIEN, Anne-Marie N/A Whitechurch F F35 00:08:56
709 40 1:29:18 FITZGERALD, Aine NEWPORT F F40 00:08:56
710 442 1:29:20 PURCELL, Roisin KCH F F35 00:08:56
711 580 1:29:24 COONEY, Niamh MALLOW AC F F40 00:08:56
712 592 1:29:24 CRONIN, Kathleen MALLOW AC F F50 00:08:56
713 936 1:29:31 O’ REILLY, Katie N/A Cahir F FS 00:08:57
714 768 1:29:32 FORAN, Tom N/A Portlaw M MS 00:08:57
715 1073 1:29:33 DINEEN, Peter GRANGE ATHLETICS M M40 00:08:57
716 41 1:29:34 KEATING, Maria N/A Mallow F FS 00:08:57
717 180 1:29:42 TWOHIG, Michael N/A Waterfall M M40 00:08:58
718 663 1:29:42 CREEDON, Marie N/A Waterfall F F50 00:08:58
719 119 1:29:45 QUINN, Aoife N/A Leopardstown F FJ 00:08:59
720 118 1:29:46 QUINN, Jim N/A Leopardstown M M40 00:08:59
721 1056 1:29:51 HEGARTY, Helen N/A Dublin F F35 00:08:59
722 1170 1:29:53 COGAN, Kevin N/A Ballyhooly M M40 00:08:59
723 666 1:29:55 MOYNIHAN, Suzy N/A Crosshaven F F45 00:09:00
724 152 1:29:56 O’ SULLIVAN, Anne N/A Frankfield F F35 00:09:00
725 816 1:29:57 BARRY, Sinead N/A Ballincollig F FS 00:09:00
726 424 1:29:58 BROSNAN, Bernard N/A Mallow M M45 00:09:00
727 679 1:30:00 MULLINS, Edmond N/A Mallow M MS 00:09:00
728 1121 1:30:01 BUCKLEY, Patrick MALLOW AC M MS 00:09:00
729 1102 1:30:01 BORKOWSKA, Anna MALLOW AC F F35 00:09:00
730 1030 1:30:01 MOYNIHAN, Oonagh N/A F F35 00:09:00
731 29 1:30:11 DOWLING, Grace NORTH CORK F F35 00:09:01
732 400 1:30:15 DARCY, Sylvia N/A Mallow F F35 00:09:01
733 381 1:30:25 WALSH, Mary MIDLETON F F50 00:09:02
734 652 1:30:40 GILL, Margaret N/A Cahir F F50 00:09:04
735 715 1:30:40 O’ REILLY, Marie N/A Cahir F F55 00:09:04
736 6 1:30:40 KELLEHER, Paul RISING SUN M M40 00:09:04
737 238 1:30:40 GEARY, Deirdre N/A Mallow F F40 00:09:04
738 1127 1:30:49 CRONIN, Helen N/A Waterfall F FS 00:09:05
739 1115 1:30:50 MC GRATH, Jane EAGLE AC F F50 00:09:05
740 1064 1:30:51 CARREÑO, Gleiber N/A Cork F FS 00:09:05
741 737 1:31:01 KYNE, Aoife N/A Blarney F F35 00:09:06
742 618 1:31:03 KNOWLES, Deirdre CLONAKILTY RR AC F F35 00:09:06
743 386 1:31:07 SPEIGHT, Sarah N/A Cloughjordan F F45 00:09:07
744 709 1:31:11 MC MANUS, Mark N/A Cork M MS 00:09:07
745 1104 1:31:12 GRIFFIN, Jason N/A Mallow M MS 00:09:07
746 208 1:31:15 O’ KEEFFE, Mairead N/A Rochestown F F40 00:09:08
747 989 1:31:17 HENRIQUES, Edel N/A Limerick F FS 00:09:08
748 1161 1:31:21 MC KEOWN, Mary NA F F40 00:09:08
749 195 1:31:24 AHERNE, Niamh N/A Mallow F FS 00:09:08
750 564 1:31:26 LAUHOFF, Michelle CLOONMEL F F35 00:09:09
751 994 1:31:26 O’ REILLY, Clare N/A Cahir F FS 00:09:09
752 932 1:31:27 O CONNOR, Keara N/A Rathcormac F FS 00:09:09
753 229 1:31:42 FLEMING, Niamh BLACKWATER TRIATHLON CLUB F F45 00:09:10
754 399 1:31:45 DARCY, Derek N/A Mallow M MS 00:09:11
755 237 1:31:49 SAVAGE, Michelle N/A Co Cork F F45 00:09:11
756 569 1:32:21 O’ RIORDAN, Eileen N/A Ballyvolane F FS 00:09:14
757 877 1:32:23 O’ DOHERTY, Garven N/A Mitcheltown M MS 00:09:14
758 1182 1:32:24 O’NEILL, Mark N/A M MS 00:09:14
759 216 1:32:29 O’ DONOVAN, Teresa N/A Douglas F F40 00:09:15
760 202 1:32:38 MURPHY, Aileen GALTEE RUNNERS F FS 00:09:16
761 703 1:32:41 HIGGINS, Paul N/A Ballincollig M M55 00:09:16
762 644 1:32:44 CRONIN, Denise N/A F FS 00:09:16
763 365 1:32:51 DOYLE, Keelin N/A Mallow F F40 00:09:17
764 779 1:32:55 BARRY, Margaret MIDLETON A.C. F F60 00:09:18
765 1042 1:32:59 PHILLIPS, Barry N/A Dromahane M MS 00:09:18
766 817 1:33:07 OWENS, David N/A Mallow M MS 00:09:19
767 353 1:33:23 BYRNE, Fiona N/A Mallow F FS 00:09:20
768 389 1:33:26 DRINAN, Timmy N/A Mallow M MS 00:09:21
769 1092 1:33:29 O BRIEN, Noel KILLROADRUNNERS AC M MS 00:09:21
770 1187 1:33:47 KEOHANE, Irene N/A F FS 00:09:23
771 802 1:33:57 O’ CONNOR, Catherine MALLOW AC F F40 00:09:24
772 408 1:34:09 FENNESSY, Jo N/A Ennis F F40 00:09:25
773 514 1:34:11 NI NUALLAIN, Nora Aine ST. FINBARR’S F FS 00:09:25
774 1156 1:34:15 DUNNE, Maggie GRANGE FERMOY F F65 00:09:26
775 36 1:34:20 DENNEHY, Emer N/A Cork City F FS 00:09:26
776 761 1:34:27 CONWAY, Luke N/A Watergrasshill, M MS 00:09:27
777 1168 1:34:29 MALLON, Collette RIOCHT F FS 00:09:27
778 1038 1:34:31 O’ SULLIVAN, Brenda N/A Wilton F FS 00:09:27
779 990 1:34:37 PATTERSON, Stephen N/A Glanmire M M40 00:09:28
780 910 1:34:41 KIELY, Sarah N/A Cork F FS 00:09:28
781 1069 1:34:56 TWOHIG, Monica N/A Cork F F45 00:09:30
782 1070 1:34:56 O’ SULLIVAN, Geraldine BANTRY AC F F55 00:09:30
783 1022 1:34:57 O’ KEEFFE, Aileen N/A F F60 00:09:30
784 252 1:35:15 NOEL, Margaret N/A Ballincollig F F35 00:09:31
785 1029 1:35:18 BROWNE, Trish CLONMEL AC F F45 00:09:32
786 277 1:35:27 O’ CONNELL, Gill N/A Burnfort F FS 00:09:33
787 467 1:35:34 MARNANE, Breeda CLONMEL MEET AND TRAIN F F45 00:09:33
788 436 1:35:43 MC DONNELL, Clare N/A Killavullen F F35 00:09:34
789 1123 1:35:44 MULCAHY, Elaine ST CATHERINES AC F F35 00:09:34
790 291 1:35:47 CASEY, Linda N/A Knockraha F F35 00:09:35
791 955 1:35:48 CRONIN, Vicki N/A Union Quay F F35 00:09:35
792 621 1:35:55 TRINDER, Kenneth N/A Foynes M MS 00:09:35
793 925 1:35:55 HOURIGAN, Siobhan N/A F F35 00:09:35
794 251 1:35:58 NAGLE, Edel N/A Mallow F F40 00:09:36
795 1001 1:36:01 NUGENT, Michelle KILKENY CITY HARRIERS F F40 00:09:36
796 833 1:36:07 QUANN, Noelle N/A Lismore F FS 00:09:37
797 1150 1:36:17 KAVANAGH, Mark N/A Newcastle M M45 00:09:38
798 1006 1:36:17 HENDLEY, Rachael N/A Blarney F F40 00:09:38
799 161 1:36:18 KINSELLA, Mairead N/A Dooradoyle F FS 00:09:38
800 406 1:36:18 HAYES, Honor MOOREABBEY MILERS F F40 00:09:38
801 966 1:36:21 COMBER, Niamh N/A F F35 00:09:38
802 240 1:36:37 FITZGERALD, William LEEVALE AC M MS 00:09:40
803 1106 1:36:48 MOLONEY, Catherine N/A Mallow F F60 00:09:41
804 749 1:36:50 ROBERTSON, Nigel N/A Mallow M M40 00:09:41
805 1060 1:36:50 O’ LEARY, Geraldine N/A F F40 00:09:41
806 865 1:36:56 HURLEY, Diarmuid BANTRY AC M M50 00:09:42
807 682 1:36:57 FOLEY, Alan NOVARTIS M M40 00:09:42
808 1183 1:37:33 HUSSEY, Anthony N/A M MS 00:09:45
809 1031 1:37:47 BARRY, Catriona N/A Fermoy F F35 00:09:47
810 999 1:37:50 CRONIN, Denise FORGET THE GYM F F40 00:09:47
811 329 1:37:57 O’ SULLIVAN, Valerie NORTH CORK AC F F35 00:09:48
812 795 1:38:01 SCANLON, Norma N/A Cork F F55 00:09:48
813 885 1:38:12 O’ DWYER, Joanne N/A Cork F FS 00:09:49
814 24 1:38:23 HAYES, Tina N/A Kilmallock F F35 00:09:50
815 662 1:38:27 SCANLON, Grainne N/A Cork F F40 00:09:51
816 642 1:38:30 DALY, Anne NONE F F35 00:09:51
817 712 1:39:01 REGAN, Cora BALLINCOLLIG FIT FOR LIFE AC F F40 00:09:54
818 1081 1:39:08 O DWYER, Lisa LISA O’DWYER F FS 00:09:55
819 744 1:39:13 GILLIGAN, Georgina CLNMEL AC F FS 00:09:55
820 965 1:39:14 O’ CONNOR, Pat N/A Currow M MS 00:09:55
821 801 1:39:18 WOULFE, Cliona MALLOW AC F FS 00:09:56
822 4 1:39:49 GLEESON, John N/A Mallow M M45 00:09:59
823 570 1:40:35 SHEEHAN, Jayne N/A Mallow F FS 00:10:03
824 823 1:40:39 CRONIN, Joanne N/A Ballincollig F FS 00:10:04
825 957 1:40:39 O’ CONNELL, Gerard N/A Liscarroll M M50 00:10:04
826 102 1:40:49 KELLY, Brendan N/A Midleton M MS 00:10:05
827 1136 1:40:58 SWEENEY, Julie N/A Mallow F FS 00:10:06
828 491 1:41:02 CRONIN, Maggie MALLOW AC F FS 00:10:06
829 134 1:41:15 LIDDANE, James BMOH AC M MS 00:10:07
830 612 1:41:20 WALSH, Eilish MIDLETON AC F F40 00:10:08
831 926 1:41:27 SCANLON, Trina N/A Mallow F FS 00:10:09
832 404 1:41:27 O’ MAHONEY, Triona N/A Mallow F FS 00:10:09
833 987 1:41:42 RYAN, Rosemary N/A Ladysbridge F F35 00:10:10
834 211 1:41:44 FOGARTY, Aine N/A Cork F F45 00:10:10
835 204 1:41:45 MC INERNEY, Martina N/A Whitechurch F F40 00:10:11
836 849 1:41:47 MOLLOY, Moira N/A Clonmel F F45 00:10:11
837 338 1:42:15 SHAW, Camilla N/A Whitechurch F F45 00:10:13
838 369 1:42:15 MURRAY, Claire N/A Sixmilewater F F35 00:10:13
839 542 1:42:17 BOLAND, Mairead YOUGHAL AC F FS 00:10:14
840 639 1:42:31 HYLAND, Mary N/A Ballyporeen F FS 00:10:15
841 80 1:42:45 RYAN, Patsy MOORE ABBEY MILERS F F40 00:10:16
842 159 1:42:48 KENNY, Shirley N/A Mallow F F35 00:10:17
843 432 1:42:50 SHEAHAN, Paula N/A Ballinlough F FS 00:10:17
844 517 1:42:51 SHEAHAN, Deirdre N/A F FS 00:10:17
845 219 1:43:38 MC CARTHY, Joan MIDLETON AC F F55 00:10:22
846 879 1:43:40 LOOBY, Karen CLONMEL F FS 00:10:22
847 886 1:43:46 CRONIN, Kay N/A Mallowcork F F45 00:10:23
848 610 1:44:03 RYAN, Geraldine N/A Ballygarvan F F40 00:10:24
849 608 1:44:03 MAC KEY, Gobnait N/A Ballygarvan F F35 00:10:24
850 311 1:44:38 BRADLEY, Colin N/A Mallow M MS 00:10:28
851 970 1:45:03 ZIMMERMAN, John N/A Mallow M M50 00:10:30
852 676 1:45:22 MURPHY, Sue Ellen MIDLETON AC F FS 00:10:32
853 318 1:45:29 REIDY, Gavin J N/A Mallow M MS 00:10:33
854 741 1:45:33 RYAN, Roberta N/A Clonmel F F40 00:10:33
855 93 1:45:36 WILLIAMS, David N/A Blackrock M MS 00:10:34
856 560 1:45:36 CRONIN, Elaine N/A Church Road F FS 00:10:34
857 1083 1:45:40 MC CARTHY, Katie N/A Mallow F FS 00:10:34
858 1137 1:45:40 CORKERY, Eimear N/A Cork F FS 00:10:34
859 297 1:45:52 O’ CONNELL, Celine N/A Mallow F F35 00:10:35
860 114 1:45:56 GEOGHEGAN, Bernard N/A Glanmire M M55 00:10:36
861 81 1:46:02 MORRISSEY, Phil N/A Galbally F F35 00:10:36
862 186 1:46:04 MC AULIFFE, Marie MALLOW AC F F35 00:10:36
863 16 1:46:05 MC AULIFFE, Paudy MALLOW AC M MS 00:10:37
864 272 1:46:22 ROCHE, Siobhan CLONMEL AC F F35 00:10:38
865 784 1:47:43 O’ SULLIVAN, Sinead N/A Bishopstown F FS 00:10:46
866 375 1:47:48 O’ DONNELL, Brian N/A Bohercrowe M M40 00:10:47
867 372 1:47:48 NUGENT, Declan N/A Cappawhite M M40 00:10:47
868 774 1:47:51 O’ CONNELL, Lucy N/A Killarney F FS 00:10:47
869 196 1:47:59 MC CORMACK, Miriam N/A Limerick F F35 00:10:48
870 197 1:47:59 KEARNEY, Deirdre LIMERICK TRIATHLON CLUB F F35 00:10:48
871 918 1:48:08 O CONNELL, Steve N/A Cloyne M M40 00:10:49
872 1132 1:48:17 DOODY, Siobhan N/A Watergrasshill F F35 00:10:50
873 215 1:48:19 GLAVIN, Bernice N/A Wilton F F50 00:10:50
874 456 1:49:00 CORKERY, Pamela N/A Mallow F FS 00:10:54
875 332 1:49:01 BROSNAN, Sinead N/A Bweeng F FS 00:10:54
876 647 1:49:11 MITCHELL, Fianait N/A F F35 00:10:55
877 270 1:49:14 CLARKE, Tina CLONMEL AC MEET & TRAIN F FS 00:10:55
878 401 1:49:25 KINANE, Bridget GALBALLY F F40 00:10:56
879 1152 1:49:46 O’ CONNOR, Elaine N/A Kiskeam F FS 00:10:59
880 1138 1:50:08 O’ REGAN, Rhona FIT FOR LIFE F F35 00:11:01
881 1027 1:50:14 PAYNE, Brendan N/A Mallow M M45 00:11:01
882 333 1:50:17 O’ CONNELL, Emer N/A Lombardstown F FS 00:11:02
883 855 1:50:42 MURPHY, Aisling N/A Mourneabbey F FS 00:11:04
884 924 1:51:50 WALSH, Ann N/A Mallow F F40 00:11:11
885 271 1:52:17 PAGNON, Lorraine N/A Mallow F F40 00:11:14
886 637 1:52:56 QUIGLEY, Ann Marie N/A Waterford F FS 00:11:18
887 187 1:53:46 CARVER, Gillian N/A Buttevant F FS 00:11:23
888 1028 1:54:30 HARVEY, Kerry N/A Mallow F F40 00:11:27
889 934 1:54:46 MC SWEENEY, James N/A Fermoy M MS 00:11:29
890 933 1:54:47 OCONNOR, Annmarie N/A Fermoy F FS 00:11:29
891 5 1:55:31 O’ LEARY, Clare MIDLETON AC F F35 00:11:33
892 294 1:55:56 O’ CALLAGHAN, Martine N/A Mallow F F40 00:11:36
893 1 2:09:16 TOHER, Mary MIDLETON AC F F55 00:12:56
894 326 2:14:39 O’ DONOVAN, Celine N/A Dromahane F FS 00:13:28
895 143 2:21:02 BOAG, Brid N/A Mallow F F35 00:14:06
896 313 2:27:24 RYAN, Catherine N/A Mallow F FS 00:14:44

Advertisements